[Iaude] MPEC J310: 2024 JK17 [a=1.90,e=0.56,i=1.2,H=24.5]
    mpec at cfa.harvard.edu 
    mpec at cfa.harvard.edu
       
    Wed May 15 07:44:36 EDT 2024
    
    
  
M.P.E.C. 2024-J310                                 Issued 2024 May 15, 11:42 UT
     The Minor Planet Electronic Circulars contain information on unusual
         minor planets, routine data on comets and natural satellites,
         and occasional editorial announcements.  They are published
    on behalf of Division F of the International Astronomical Union by the
          Minor Planet Center, Smithsonian Astrophysical Observatory,
                          Cambridge, MA 02138, U.S.A.
			  
             Prepared using the Tamkin Foundation Computer Network
                              MPC at CFA.HARVARD.EDU
            URL https://www.minorplanetcenter.net/    ISSN 1523-6714
                                   2024 JK17                                    
Observations:
     K24J17K*1C2024 05 14.27905813 07 33.888+07 55 52.72         19.45GVEJ310703
     K24J17K 1C2024 05 14.28131313 07 38.064+07 55 06.53         18.91GVEJ310703
     K24J17K 1C2024 05 14.28357413 07 42.107+07 54 21.82         19.19GVEJ310703
     K24J17K 1C2024 05 14.28582513 07 46.096+07 53 35.99         19.09GVEJ310703
     K24J17K  C2024 05 14.34188813 09 27.068+07 34 33.88         18.2 GVEJ310H01
     K24J17K  C2024 05 14.35003213 09 41.761+07 31 50.07         18.3 GVEJ310H01
     K24J17K mC2024 05 14.35141113 09 44.561+07 31 28.78         18.45GVEJ310I52
     K24J17K mC2024 05 14.35158513 09 44.856+07 31 25.36         18.63GVEJ310I52
     K24J17K mC2024 05 14.35175513 09 45.169+07 31 22.01         18.54GVEJ310I52
     K24J17K mC2024 05 14.35192413 09 45.468+07 31 18.37         18.53GVEJ310I52
     K24J17K  C2024 05 14.36015513 10 00.021+07 28 26.64         18.5 GVEJ310H01
     K24J17K  C2024 05 14.36415913 10 07.242+07 27 06.42         18.7 GVEJ310H01
     K24J17K KB2024 05 14.45711513 13 11.913+06 56 36.23         19.7 GXEJ310Q06
     K24J17K KB2024 05 14.46466113 13 24.923+06 54 09.26         19.3 GXEJ310Q06
     K24J17K KB2024 05 14.47212913 13 37.767+06 51 44.18         19.8 GXEJ310Q06
     K24J17K KB2024 05 14.53762 13 15 33.31 +06 30 23.5          19.0 GVEJ310P13
     K24J17K KB2024 05 14.54497 13 15 45.73 +06 28 02.8          18.9 GVEJ310P13
     K24J17K KB2024 05 14.55231 13 15 58.11 +06 25 42.6          19.2 GVEJ310P13
     K24J17K KB2024 05 14.55964 13 16 10.43 +06 23 22.8          18.3 GVEJ310P13
     K24J17K KB2024 05 14.57448 13 16 35.29 +06 18 40.3          18.3 GVEJ310P13
     K24J17K KB2024 05 14.66582 13 19 08.93 +05 50 35.0                VEJ310O46
     K24J17K KB2024 05 14.66713 13 19 11.02 +05 50 11.1                VEJ310O46
     K24J17K  C2024 05 14.76450 13 22 03.60 +05 23 44.4          18.9 GVEJ310M28
     K24J17K  C2024 05 14.76703 13 22 07.58 +05 22 59.5          18.4 GVEJ310M28
     K24J17K KB2024 05 14.81940513 23 31.130+05 03 12.49         18.0 GXEJ310L34
     K24J17K KB2024 05 14.82616913 23 41.722+05 01 10.60         18.5 GXEJ310L34
     K24J17K 1C2024 05 14.84927 13 24 17.71 +04 53 41.7          19.8 VXEJ310033
     K24J17K 1C2024 05 14.84961 13 24 18.27 +04 53 35.3          19.7 VXEJ310033
     K24J17K 1C2024 05 14.84996 13 24 18.80 +04 53 29.0          19.7 VXEJ310033
     K24J17K KB2024 05 14.86024013 24 35.136+04 50 29.26         18.8 GXEJ310K74
     K24J17K KB2024 05 14.86158213 24 36.802+04 50 38.36         18.1 GXEJ310L34
     K24J17K KB2024 05 14.86682513 24 45.415+04 48 31.64         19.0 GXEJ310K74
     K24J17K KB2024 05 14.87340613 24 55.632+04 46 35.15               XEJ310K74
     K24J17K KB2024 05 14.87358813 24 55.289+04 47 05.28         18.3 GXEJ310L34
     K24J17K KB2024 05 14.87646513 25 00.737+04 45 38.77         19.5 GXEJ310B72
     K24J17K KB2024 05 14.88497013 25 13.957+04 43 07.74         19.7 GXEJ310B72
     K24J17K KB2024 05 14.88613 13 25 15.55 +04 42 41.0          19.6 GVEJ310L65
     K24J17K KB2024 05 14.89347713 25 27.138+04 40 37.28         19.0 GXEJ310B72
     K24J17K KC2024 05 14.89564713 25 29.60 +04 39 58.2          18.9 GVEJ310G34
     K24J17K KC2024 05 14.90033413 25 36.84 +04 38 35.4          18.0 GVEJ310G34
     K24J17K KC2024 05 14.90502513 25 44.06 +04 37 12.6          18.4 GVEJ310G34
     K24J17K KB2024 05 14.90805 13 25 49.50 +04 36 14.3          19.4 GVEJ310L65
     K24J17K 1C2024 05 14.95909 13 27 07.33 +04 21 24.9          19.8 VXEJ310033
     K24J17K 1C2024 05 14.95943 13 27 07.86 +04 21 19.0          19.6 VXEJ310033
     K24J17K 1C2024 05 14.95977 13 27 08.38 +04 21 13.1          19.6 VXEJ310033
     K24J17K KB2024 05 15.02058713 28 48.674+04 07 33.35         19.4 VZEJ310Y05
     K24J17K KB2024 05 15.02472713 28 54.720+04 06 22.25         19.6 VZEJ310Y05
     K24J17K KB2024 05 15.02880713 29 00.722+04 05 12.48         20.5 VZEJ310Y05
     K24J17K KB2024 05 15.14684 13 32 02.105+03 28 42.28         19.4 GVEJ310734
     K24J17K KB2024 05 15.15181 13 32 09.113+03 27 21.13         19.9 GVEJ310734
     K24J17K mC2024 05 15.15783313 32 20.731+03 25 58.08               VEJ310I52
     K24J17K mC2024 05 15.15800913 32 21.008+03 25 55.42         19.24GVEJ310I52
     K24J17K mC2024 05 15.15817913 32 21.257+03 25 52.07         19.75GVEJ310I52
     K24J17K mC2024 05 15.15834913 32 21.480+03 25 49.76         19.63GVEJ310I52
Observer details:
033 Karl Schwarzschild Observatory, Tautenburg.  Observers C. Heogner, F.
    Ludwig, M. Hartmann, B. Stecklum.  Measurer B. Stecklum.  1.34-m f/3
    Schmidt + CCD.
703 Catalina Sky Survey.  Observer J. K. Hogan.  Measurers T. Beuden, V. F.
    Carvajal, D. Fay, J. B. Fazekas, D. C. Fuls, A. R. Gibbs, A. D. Grauer, H.
    Groeller, J. K. Hogan, R. A. Kowalski, S. M. Larson, G. J. Leonard, D.
    Rankin, R. L. Seaman, F. C. Shelly, K. W. Wierzchos.  0.68-m Schmidt + 10K
    CCD.
734 Farpoint Observatory, Eskridge.  Observers D. Cromer, G. Hug, D. Goodin,
    R. Valentine, P. Lessig.  Measurer P. Lessig.  0.69-m f/3.54 reflector +
    CMO.
B72 Soerth Observatory.  Observer B. Koch.  0.36-m f/7.6 reflector + CMO.
G34 Oberfrauendorf.  Observer T. Felber.  0.35-m f/6.3 Schmidt-Cassegrain +
    CMOS.
H01 Magdalena Ridge Observatory, Socorro.  Observers W. H. Ryan, E. V. Ryan.
    Measurer W. H. Ryan.  2.4-m f/8.9 Ritchey-Chretien + CCD.
I52 Steward Observatory, Mt. Lemmon Station.  Observer K. W. Wierzchos.
    Measurers T. Beuden, V. F. Carvajal, D. Fay, J. B. Fazekas, D. C. Fuls, A.
    R. Gibbs, A. D. Grauer, H. Groeller, J. K. Hogan, R. A. Kowalski, S. M.
    Larson, G. J. Leonard, D. Rankin, R. L. Seaman, F. C. Shelly, K. W.
    Wierzchos.  1.0-m prime focus + CCD.
K74 Muensterschwarzach Observatory, Schwarzach.  Observer C. Gerhard.  0.30-m
    f/3.75 reflector + CMO.
L34 Galhassin Robotic Telescope, Isnello.  Observer A. Nastasi.  0.40-m f/3.8
    400mm Reflector + CMO.
L65 Bredenkamp Observatory, Bremen.  Observer H. Duin.  0.23-m f/6.3 reflector
    + CMO.
M28 Lesedi Telescope-SAAO Observatory, Sutherland.  Observers N. Erasmus, S.
    Potter, C. van Gend, S. Chandra, H. Worters.  Measurers T. Ngwane, N.
    Erasmus.  1.0-m f/8 Reflector + CCD.
O46 Daocheng Glacier Observatory.  Observer Z. Wang.  0.25-m f/8 reflector +
    CMO.
P13 Baihuashan Observatory, Beijing.  Observers Z. Wang, B. Liu.  Measurer Z.
    Wang.  0.28-m f/2.2 reflector + CMO.
Q06 Tarui Observatory, Tarui.  Observer H. Watanabe.  0.35-m f/1.9 Schmidt-
    Cassegrain + CMO.
Y05 SONEAR Wykrota-CEAMIG, Serra da Piedade.  Observers C. Jacques, A.
    Caetano, E. Pimentel.  Measurer C. Jacques.  0.45-m f/2.9 reflector + CMO.
Orbital elements:
2024 JK17                                                Earth MOID = 0.0106 AU
Epoch 2024 Mar. 31.0 TT = JDT 2460400.5                 Veres                   
M   0.75744              (2000.0)            P               Q                  
n   0.37772249     Peri.   89.20191     -0.97654256     -0.21435026             
a   1.8953416      Node    78.42050     +0.18831844     -0.89627257             
e   0.5644757      Incl.    1.19669     +0.10440686     -0.38826466             
P   2.61           H   24.58          G   0.15           U   8                  
Residuals in seconds of arc
240514 703  0.4-  0.4-    240514 P13  0.4+  0.3-    240514 L65  0.4-  0.2-
240514 703  0.9+  0.6-    240514 P13  0.0   0.2-    240514 B72  0.1+  0.3+
240514 703  0.1+  0.7+    240514 O46  0.7+  0.2+    240514 G34  0.4+  0.0
240514 703  1.2-  0.7+    240514 O46  0.1+  0.7+    240514 G34  0.3+  0.0
240514 H01  0.1+  0.1-    240514 M28  1.4+  1.2-    240514 G34  0.0   0.0
240514 H01  0.0   0.0     240514 M28  0.7+  0.1-    240514 L65  0.2-  0.2+
240514 I52  0.1+  0.0     240514 L34  0.1+  0.0     240514 033  0.0   0.2+
240514 I52  0.2-  0.1+    240514 L34  0.2+  0.5-    240514 033  0.2+  0.3+
240514 I52  0.0   0.2+    240514 033  0.1-  0.3+    240514 033  0.2+  0.3+
240514 I52  0.1-  0.1-    240514 033  0.3+  0.0     240515 Y05  0.4+  0.1-
240514 H01  0.0   0.1-    240514 033  0.0   0.1-    240515 Y05  0.1-  0.1-
240514 H01  0.0   0.0     240514 K74  0.1+  0.4+    240515 Y05  0.1+  0.1+
240514 Q06  0.5+  0.2+    240514 L34  0.3+  0.1+    240515 734  0.4+  0.2-
240514 Q06  0.2+  0.1+    240514 K74  0.4+  0.1-    240515 734 (1.2-  1.2+)
240514 Q06  0.0   0.2+    240514 K74  0.1+  0.4+    240515 I52  0.3-  0.0
240514 P13  0.6+  0.5-    240514 L34  0.4-  0.5+    240515 I52  0.1+  0.3+
240514 P13  0.5+  0.5-    240514 B72  0.4-  0.6+    240515 I52  0.2+  0.3-
240514 P13  0.5+  0.4-    240514 B72  0.1-  0.2+    240515 I52  0.1-  0.3+
Ephemeris:
2024 JK17                a,e,i = 1.90, 0.56, 1                   q = 0.8255
Date    TT    R. A. (2000) Decl.     Delta      r    Elong.  Phase     V
2024 04 15    04 29 06.5 +26 00 19   0.2214  0.8598    44.6   125.0    26.2
...
2024 04 30    05 24 43.7 +30 58 07   0.09793 0.9382    43.1   132.8    25.4
...
2024 05 08    07 50 02.5 +36 42 18   0.04235 0.9928    66.0   111.8    22.0
...
2024 05 14    12 58 32.2 +09 34 55   0.03814 1.0377   134.4    44.1    19.3
2024 05 15    13 28 14.2 +04 12 20   0.04310 1.0454   142.6    36.0    19.3
2024 05 16    13 51 06.7 -00 02 43   0.04892 1.0532   148.8    29.8    19.4
...
2024 05 22    14 58 21.2 -12 12 52   0.09220 1.1012   164.0    14.7    20.4
...
2024 05 30    15 28 25.1 -17 05 08   0.1583  1.1674   165.2    12.8    21.7
...
2024 06 14    15 50 42.6 -20 05 50   0.2981  1.2949   156.8    18.0    23.4
M. P. C. Staff               (C) Copyright 2024 MPC           M.P.E.C. 2024-J310
    
    
More information about the Iaude
mailing list